Tracking 21612 objects as of 20-Oct-2020
HD Live streaming from Space Station
objects crossing your sky now

ASGARDIA 1

Track ASGARDIA 1 now!
10-day predictions


NORAD ID: 43049
Int'l Code: 2017-071N
Perigee: 438.0 km
Apogee: 441.9 km
Inclination: 51.6 °
Period: 93.2 minutes
Semi major axis: 6810 km
RCS: Unknown
Launch date: November 12, 2017
Source: United States (US)
Launch site: WALLOPS ISLAND (WLPIS)
aabbcc
Your satellite tracking list
Your tracking list is empty




NASA's NSSDC Master Catalog

Two Line Element Set (TLE):
1 43049U 17071N   20293.89180675 +.00005095 +00000-0 +11694-3 0  9999
2 43049 051.6378 174.8896 0002841 148.9999 211.1155 15.44516203161576
Source of the keplerian elements: AFSPC